Date String (YYYY-MM-DD hh:mm:ss) UTC,Instrument flags,Ambient pressure (hPa),Sample flow (lpm),Bypass flow (lpm),Sample temperature (°C),Ambient temperature (°C),ASC tube jacket temperature (°C),LED temperature (°C),Box temperature (°C),Sample RH (%),Span deviation,Mass concentration (μg/m³),Mass concentration (μg/m³),Mass concentration (μg/m³)
DateTimeUTC,F1_M11,P_M11,Q1_M11,Q2_M11,T1_M11,T2_M11,T3_M11,T4_M11,T5_M11,U1_M11,ZSPAN_M11,X2_M11,X0_M11,X1_M11
2022-03-24 18:00:00,,0825.2,5.01,0.00,26.6,26.0,00.0,35.3,28.4,09.4,0000.0,0001.81,0008.85,0000.76
2022-03-24 18:01:00,,0825.2,5.01,0.00,26.6,26.0,00.0,35.3,28.5,08.9,0000.0,0001.77,0008.55,0000.75
2022-03-24 18:02:00,,0825.3,5.01,0.00,26.6,26.0,00.0,35.3,28.5,09.0,0000.0,0001.78,0008.69,0000.75
2022-03-24 18:03:00,,0825.2,5.01,0.00,26.7,26.0,00.0,35.4,28.5,08.9,0000.0,0001.86,0008.66,0000.75
2022-03-24 18:04:00,,0825.2,4.99,0.00,26.7,26.0,00.0,35.4,28.5,08.9,0000.0,0002.05,0008.97,0000.76
2022-03-24 18:05:00,,0825.2,5.00,0.00,26.7,26.0,00.0,35.4,28.6,08.2,0000.0,0002.09,0009.05,0000.76
2022-03-24 18:06:00,,0825.3,5.01,0.00,26.7,26.0,00.0,35.4,28.6,08.3,0000.0,0002.07,0009.03,0000.75
2022-03-24 18:07:00,,0825.2,5.00,0.00,26.7,26.1,00.0,35.5,28.6,08.6,0000.0,0001.89,0007.84,0000.74
2022-03-24 18:08:00,,0825.3,4.99,0.00,26.8,26.1,00.0,35.5,28.6,08.7,0000.0,0001.81,0006.03,0000.73
2022-03-24 18:09:00,,0825.3,4.99,0.00,26.8,26.1,00.0,35.5,28.6,08.6,0000.0,0001.78,0006.28,0000.73
2022-03-24 18:10:00,,0825.2,5.01,0.00,26.8,26.1,00.0,35.5,28.6,09.0,0000.0,0001.77,0006.10,0000.73
2022-03-24 18:11:00,,0825.2,5.01,0.00,26.8,26.1,00.0,35.6,28.6,08.5,0000.0,0001.78,0006.21,0000.71
2022-03-24 18:12:00,,0825.2,5.00,0.00,26.8,26.1,00.0,35.6,28.7,08.3,0000.0,0001.81,0006.05,0000.70
2022-03-24 18:13:00,,0825.2,4.99,0.00,26.9,26.1,00.0,35.6,28.7,08.2,0000.0,0001.80,0005.78,0000.70
2022-03-24 18:14:00,,0825.3,5.00,0.00,26.9,26.1,00.0,35.6,28.7,08.4,0000.0,0001.76,0005.63,0000.70
2022-03-24 18:15:00,,0825.2,5.01,0.00,26.9,26.1,00.0,35.7,28.7,08.4,0000.0,0001.56,0005.08,0000.68
2022-03-24 18:16:00,,0825.3,4.99,0.00,26.9,26.1,00.0,35.7,28.7,09.0,0000.0,0001.54,0004.99,0000.67
2022-03-24 18:17:00,,0825.2,5.00,0.00,26.9,26.2,00.0,35.7,28.7,08.8,0000.0,0001.54,0005.01,0000.68
2022-03-24 18:18:00,,0825.2,5.01,0.00,26.9,26.2,00.0,35.7,28.7,08.7,0000.0,0001.54,0005.09,0000.68
2022-03-24 18:19:00,,0825.2,5.00,0.00,27.0,26.2,00.0,35.7,28.8,08.6,0000.0,0001.28,0003.40,0000.67
2022-03-24 18:20:00,,0825.2,4.99,0.00,27.0,26.2,00.0,35.7,28.8,08.7,0000.0,0001.20,0002.69,0000.66
2022-03-24 18:21:00,,0825.2,4.99,0.00,27.0,26.2,00.0,35.8,28.8,08.9,0000.0,0001.16,0002.44,0000.65
2022-03-24 18:22:00,,0825.1,5.00,0.00,27.0,26.2,00.0,35.8,28.8,08.9,0000.0,0001.13,0002.27,0000.67
2022-03-24 18:23:00,,0825.2,5.01,0.00,27.0,26.2,00.0,35.8,28.9,09.0,0000.0,0001.14,0002.23,0000.69
2022-03-24 18:24:00,,0825.3,5.01,0.00,27.0,26.3,00.0,35.8,28.8,09.1,0000.0,0001.15,0002.44,0000.70
2022-03-24 18:25:00,,0825.2,4.99,0.00,27.1,26.3,00.0,35.8,28.8,09.3,0000.0,0001.14,0002.60,0000.71
2022-03-24 18:26:00,,0825.2,5.00,0.00,27.1,26.3,00.0,35.8,28.9,08.9,0000.0,0001.14,0002.52,0000.72
2022-03-24 18:27:00,,0825.2,5.02,0.00,27.1,26.3,00.0,35.9,28.9,09.0,0000.0,0001.15,0002.67,0000.73
2022-03-24 18:28:00,,0825.2,5.00,0.00,27.1,26.3,00.0,35.9,28.9,08.7,0000.0,0001.22,0002.92,0000.73
2022-03-24 18:29:00,,0825.2,5.00,0.00,27.1,26.3,00.0,35.9,28.9,08.9,0000.0,0001.22,0003.22,0000.73
2022-03-24 18:30:00,,0825.3,5.00,0.00,27.1,26.3,00.0,35.9,29.0,08.7,0000.0,0001.21,0003.51,0000.73
2022-03-24 18:31:00,,0825.2,5.01,0.00,27.1,26.3,00.0,35.9,28.9,08.7,0000.0,0001.18,0003.40,0000.73
2022-03-24 18:32:00,,0825.2,5.00,0.00,27.1,26.3,00.0,35.9,29.0,08.8,0000.0,0001.17,0003.36,0000.74
2022-03-24 18:33:00,,0825.2,4.99,0.00,27.2,26.4,00.0,36.0,29.0,08.7,0000.0,0001.18,0003.42,0000.73
2022-03-24 18:34:00,,0825.2,5.01,0.00,27.2,26.4,00.0,36.0,29.0,08.9,0000.0,0001.14,0003.37,0000.72
2022-03-24 18:35:00,,0825.2,5.00,0.00,27.2,26.4,00.0,36.0,29.0,08.7,0000.0,0001.15,0003.30,0000.71
2022-03-24 18:36:00,,0825.2,4.99,0.00,27.2,26.4,00.0,36.0,29.0,08.8,0000.0,0001.14,0003.07,0000.70
2022-03-24 18:37:00,,0825.1,5.01,0.00,27.2,26.4,00.0,36.0,29.1,08.7,0000.0,0001.15,0003.13,0000.69
2022-03-24 18:38:00,,0825.2,5.00,0.00,27.2,26.4,00.0,36.1,29.1,08.5,0000.0,0001.14,0003.04,0000.70
2022-03-24 18:39:00,,0825.2,5.00,0.00,27.2,26.4,00.0,36.1,29.0,08.7,0000.0,0001.06,0002.69,0000.70
2022-03-24 18:40:00,,0825.1,5.01,0.00,27.2,26.4,00.0,36.1,29.1,09.0,0000.0,0001.06,0002.44,0000.70
2022-03-24 18:41:00,,0825.1,4.99,0.00,27.2,26.4,00.0,36.1,29.0,08.8,0000.0,0001.02,0001.85,0000.70
2022-03-24 18:42:00,,0825.1,4.99,0.00,27.2,26.4,00.0,36.1,29.0,08.9,0000.0,0001.02,0001.86,0000.71
2022-03-24 18:43:00,,0825.1,5.01,0.00,27.3,26.5,00.0,36.1,29.1,08.8,0000.0,0001.04,0001.87,0000.70
2022-03-24 18:44:00,,0825.1,5.01,0.00,27.3,26.5,00.0,36.1,29.1,08.7,0000.0,0001.02,0002.08,0000.70
2022-03-24 18:45:00,,0825.1,5.00,0.00,27.3,26.5,00.0,36.1,29.1,08.8,0000.0,0001.00,0002.57,0000.70
2022-03-24 18:46:00,,0825.1,4.99,0.00,27.3,26.5,00.0,36.1,29.1,08.9,0000.0,0000.94,0002.36,0000.69
2022-03-24 18:47:00,,0825.1,5.01,0.00,27.3,26.5,00.0,36.1,29.1,08.9,0000.0,0000.91,0002.29,0000.69
2022-03-24 18:48:00,,0825.2,5.01,0.00,27.3,26.5,00.0,36.2,29.1,08.7,0000.0,0000.89,0002.19,0000.69
2022-03-24 18:49:00,,0825.2,4.99,0.00,27.3,26.5,00.0,36.2,29.1,08.5,0000.0,0000.89,0002.18,0000.68
2022-03-24 18:50:00,,0825.2,4.99,0.00,27.3,26.5,00.0,36.2,29.1,08.6,0000.0,0000.89,0002.19,0000.68
2022-03-24 18:51:00,,0825.1,5.00,0.00,27.3,26.5,00.0,36.2,29.1,08.6,0000.0,0000.90,0002.19,0000.68
2022-03-24 18:52:00,,0825.2,5.01,0.00,27.3,26.5,00.0,36.2,29.1,08.6,0000.0,0000.91,0002.25,0000.68
2022-03-24 18:53:00,,0825.2,5.00,0.00,27.4,26.6,00.0,36.2,29.1,08.6,0000.0,0000.90,0002.29,0000.67
2022-03-24 18:54:00,,0825.3,5.01,0.00,27.4,26.6,00.0,36.2,29.2,08.5,0000.0,0000.89,0002.29,0000.67
2022-03-24 18:55:00,,0825.2,4.99,0.00,27.4,26.6,00.0,36.2,29.2,08.5,0000.0,0000.90,0002.21,0000.67
2022-03-24 18:56:00,,0825.2,5.00,0.00,27.4,26.6,00.0,36.2,29.2,08.4,0000.0,0000.93,0001.56,0000.68
2022-03-24 18:57:00,,0825.2,5.01,0.00,27.4,26.6,00.0,36.2,29.2,08.4,0000.0,0000.95,0001.63,0000.68
2022-03-24 18:58:00,,0825.2,5.00,0.00,27.4,26.6,00.0,36.3,29.2,08.4,0000.0,0000.97,0001.65,0000.68
2022-03-24 18:59:00,,0825.2,4.99,0.00,27.4,26.6,00.0,36.3,29.2,08.5,0000.0,0000.98,0001.67,0000.68
